Weather Roundup
Issued by NWS

Home | Current Version | Previous Version | Graphics & Text | Print | Product List | Glossary Off
Versions: 1 2 3 4 5 6 7 8 9 10 11 12 13 14 15 16 17 18 19 20 21 22 23 24 25 26 27 28 29 30 31 32 33 34 35 36 37 38 39 40 41 42 43 44 45 46 47 48 49 50

202
NZUS93 KARX 240859
HRRWXR

CURRENT HOURLY OBSERVATIONS ACROSS
MUCH OF THE UPPER MISSISSIPPI VALLEY
NATIONAL WEATHER SERVICE LA CROSSE WI
400 AM CDT WED MAY 24 2017


...SOUTHEAST MINNESOTA...


CITY           SKY/WX    TMP DP  RH WIND       PRES   REMARKS
ROCHESTER      CLOUDY    48  46  93 N12       29.74S
ROCHESTER/MAYO NOT AVBL
WINONA         CLOUDY    54  48  82 NE5       29.74S
AUSTIN         CLOUDY    48  45  87 N7        29.73S
ALBERT LEA     CLOUDY    50  46  87 N9        29.74S
DODGE CENTER   CLOUDY    46  45  93 N9        29.75R
PRESTON        CLOUDY    49  46  90 NE7       29.73S
OWATONNA       CLOUDY    48  45  87 N8        29.76S
FARIBAULT      MOCLDY    48  45  87 N6        29.77S
$$

...ELSEWHERE IN MINNESOTA...


CITY           SKY/WX    TMP DP  RH WIND       PRES   REMARKS
MINNEAPOLIS    PTCLDY    47  42  83 N8        29.79F
INTNL FALLS    CLEAR     33  29  85 CALM      29.88S
DULUTH         CLOUDY    47  46  97 N6        29.82F
RED WING       CLOUDY    50  43  76 NE7       29.76S
REDWOOD FALLS  CLEAR     46  43  89 NW6       29.80F
MANKATO        CLEAR     46  44  93 N8        29.79R
WORTHINGTON    CLEAR     44  43  96 N10       29.80S
FAIRMONT       CLEAR     46  44  93 N10       29.77S
$$

...SOUTHWEST WISCONSIN...


CITY           SKY/WX    TMP DP  RH WIND       PRES   REMARKS
LA CROSSE      CLOUDY    53  48  83 VRB3      29.72S
PRAIRIE DU CHI CLOUDY    51  49  92 N5        29.68S
BOSCOBEL       CLOUDY    52  49  89 NE6       29.68S
LONE ROCK      NOT AVBL
PLATTEVILLE    CLOUDY    52  52 100 NE8       29.66S
FORT MC COY    CLOUDY    47  47 100 N3        29.72F FOG
CAMP DOUGLAS   DRIZZLE   50  50 100 N3        29.70S
MAUSTON-NEW LI CLOUDY    49  49  97 N6        29.69F FOG
VIROQUA        CLOUDY    48  47  96 MISG      29.70S
WIS DELLS      CLOUDY    48  47  94 NE7       29.68F FOG
$$

...ELSEWHERE IN WISCONSIN...


CITY           SKY/WX    TMP DP  RH WIND       PRES   REMARKS
MILWAUKEE      CLOUDY    48  48 100 NE5       29.65F
MADISON        CLOUDY    50  48  93 NE8       29.66F
GREEN BAY      CLOUDY    49  49 100 NE14      29.69F
EAU CLAIRE     NOT AVBL
BLACK RVR FLS  CLOUDY    50  50 100 CALM      29.72S
MEDFORD        CLOUDY    47  43  88 N8        29.74S
WAUSAU         LGT RAIN  48  46  93 N3        29.71F
WIS RAPIDS     LGT RAIN  49  47  93 NE9       29.72F FOG
MARSHFIELD     LGT RAIN  49  45  86 NE8       29.71F
RICE LAKE      CLOUDY    46  43  87 N12       29.80F
$$

...NORTHEAST IOWA...


CITY           SKY/WX    TMP DP  RH WIND       PRES   REMARKS
WATERLOO       CLOUDY    52  49  89 N9        29.67S
DUBUQUE        CLOUDY    51  51 100 NE8       29.65S FOG
DECORAH        CLOUDY    50  48  93 N8        29.69R
MASON CITY     MOCLDY    50  46  86 N16       29.73S
CHARLES CITY   CLOUDY    52  48  87 NE14G20   29.70S
OELWEIN        CLOUDY    52  52 100 N9        29.68R
$$

...ELSEWHERE IN IOWA...


CITY           SKY/WX    TMP DP  RH WIND       PRES   REMARKS
DES MOINES     RAIN      52  50  93 N9        29.68F FOG
IOWA CITY      CLOUDY    50  47  89 CALM      29.66F
FORT DODGE     CLOUDY    50  46  87 N8        29.73S
MARSHALLTOWN   CLOUDY    52  51  97 N13       29.66S
CEDAR RAPIDS   CLOUDY    48  48 100 NW5       29.64F
$$

...NORTHERN ILLINOIS...


CITY           SKY/WX    TMP DP  RH WIND       PRES   REMARKS
CHICAGO-OHARE  LGT RAIN  54  51  90 NE8       29.62S FOG
CHICAGO-MIDWAY LGT RAIN  55  54  96 N9        29.61S FOG
MOLINE         MOCLDY    47  45  93 CALM      29.63F
ROCKFORD       CLOUDY    53  52  96 N3        29.65F FOG
PEORIA         CLOUDY    53  53 100 NW5       29.62S
$$

NOTE: "FAIR" INDICATES FEW OR NO CLOUDS BELOW 12,000 FEET WITH NO
SIGNIFICANT WEATHER AND/OR OBSTRUCTIONS TO VISIBILITY. WIND
SPEEDS ARE IN MILES-PER-HOUR.




USA.gov is the U.S. government's official web portal to all federal, state and local government web resources and services.